Location: Clanezzo
(45.7500°N, 9.6000°E)
Time: 10:37:49
(UTC+00:00)

CAS-4A - Pass Details

Date: 11 July 2022
Orbit: 521 x 536 km, 43.0° (Epoch: 17 August)

Event Time Altitude Azimuth Distance (km) Brightness Sun altitude
Exits shadow 01:37:10 30° 187° (S) 947 ? -16.0°
Drops below altitude 10° 01:40:15 10° 139° (SE) 1,753 ? -15.7°
Sets 01:42:38 0° 129° (SE) 2,642 ? -15.5°
